Temperature
14 15 15 16 13 11 13 13 13 13 14 14 14 15 14 14 15 15 14 14 15 15 15 15 15 15 15 15 15 15 15 15 15 15 15 15 15 15 15 15 15 15 15 15 15 15 15 15 15
14 15 15 15 11 12 13 13 13 13 14 14 14 14 14 13 13 14 14 14 14 14 14 14 14 15 15 15 15 15 15 15 15 15 15 15 15 15 15 15 15 15 15 15 15 15 15 15 15
14 15 15 10 11 12 14 13 12 13 14 14 13 13 13 13 13 13 14 14 14 14 14 14 14 14 14 15 15 15 15 15 15 15 15 15 15 15 15 15 15 15 15 15 14 14 14 14 14
14 14 13 10 12 12 13 13 12 12 13 13 13 12 12 12 13 13 13 14 14 14 14 14 14 14 14 14 15 15 15 15 15 15 15 15 15 15 15 15 15 15 15 14 14 14 14 14 14
14 14 11 10 11 11 11 12 12 12 12 12 12 11 12 12 12 13 13 13 13 14 14 14 14 14 14 14 14 14 14 14 14 15 15 15 15 15 15 15 15 15 14 14 14 14 14 14 14
13 10 10 10 11 11 11 12 12 12 12 12 12 11 11 12 12 13 13 13 13 13 13 13 13 13 14 14 14 14 14 14 14 14 14 14 14 14 15 15 14 14 14 14 14 14 14 14 14
12 9 10 10 10 11 12 12 12 11 11 11 12 11 11 12 12 12 12 12 13 13 13 13 13 13 13 13 13 14 14 14 14 14 14 14 14 14 14 14 14 14 14 14 14 14 14 14 14
12 9 10 9 10 11 11 12 12 11 11 11 12 10 11 11 11 12 12 12 12 12 13 13 13 13 13 13 13 13 13 13 13 13 14 14 14 14 14 14 14 14 14 14 14 14 13 13 13
12 8 9 9 10 11 11 11 11 11 11 11 11 11 11 11 11 11 12 12 12 12 12 12 12 12 12 13 13 13 13 13 13 13 13 13 13 13 13 13 13 13 13 13 13 13 13 13 13
10 8 9 10 10 10 10 10 10 10 9 10 10 10 11 11 11 11 12 12 12 12 12 12 12 12 12 12 12 12 12 13 13 13 13 13 13 13 13 13 13 13 13 13 13 13 13 13 13
9 8 9 10 10 10 10 10 10 10 9 9 10 10 10 11 11 11 11 11 11 11 11 11 11 12 12 12 12 12 12 12 12 12 12 12 12 12 12 13 13 13 13 13 13 13 13 12 12
8 8 9 10 10 10 9 9 9 9 9 10 10 10 10 10 10 10 10 10 11 11 11 11 11 11 11 11 11 11 12 12 12 12 12 12 12 12 12 12 12 12 12 12 12 12 12 12 12
8 8 9 9 9 9 9 8 8 8 9 9 9 9 9 9 9 9 10 10 10 10 10 10 11 11 11 11 11 11 11 11 11 11 11 12 12 12 12 12 12 12 12 12 12 12 12 12 12
8 8 8 9 9 9 8 8 7 8 9 9 9 8 8 8 9 9 9 9 10 10 10 10 10 10 10 10 10 10 10 10 11 11 11 11 11 12 12 12 12 12 12 12 12 12 11 11 11
8 8 8 8 8 8 8 7 6 7 8 8 8 8 8 8 8 8 9 9 9 9 10 10 10 10 10 10 10 10 10 10 10 11 11 11 11 11 11 11 11 11 11 11 11 11 11 11 11
8 7 7 8 8 8 8 7 7 7 7 6 7 7 7 7 7 8 8 8 9 9 9 9 9 9 9 9 9 9 9 10 10 10 10 10 10 10 10 11 11 11 11 11 11 11 11 10 10
7 6 7 7 8 7 7 6 6 7 6 6 6 6 6 7 7 7 7 8 8 8 8 9 9 9 9 9 9 9 9 9 9 9 9 10 10 10 10 10 10 10 10 10 10 10 10 10 10
6 6 6 6 7 7 6 5 5 6 5 5 5 5 5 6 6 6 7 7 8 8 8 8 8 8 8 8 8 8 8 8 9 9 9 9 9 9 9 9 9 9 9 9 9 9 9 9 9
7 6 6 6 6 6 5 5 5 5 4 4 4 4 5 5 6 6 6 7 7 7 7 7 7 7 8 8 8 8 8 8 8 8 8 8 8 9 9 9 9 9 9 9 9 9 9 9 9
6 6 5 5 6 6 4 4 5 4 4 4 4 4 4 5 5 5 6 6 6 6 7 7 7 7 7 7 7 7 7 7 7 7 7 7 8 8 8 8 8 8 8 8 8 8 8 8 8
6 6 5 5 5 5 4 5 4 4 4 4 4 4 4 4 5 5 5 5 6 6 6 6 6 6 6 7 7 7 7 7 7 7 7 7 7 7 7 7 7 8 7 7 7 8 8 7 7
6 6 6 5 5 4 5 4 4 4 3 3 3 4 4 4 4 4 5 5 5 5 5 5 6 6 6 6 6 6 6 6 6 6 6 6 6 6 6 7 7 7 7 7 7 7 7 7 7
5 5 5 5 4 3 3 3 4 3 3 3 3 3 3 4 4 4 4 4 4 4 5 5 5 5 5 6 6 6 6 5 5 5 5 6 6 6 6 6 6 6 6 6 6 6 6 6 6
5 5 4 3 3 3 3 3 4 3 3 3 3 3 3 3 4 4 4 4 4 4 4 4 5 5 5 5 5 5 5 5 5 5 5 5 5 5 5 5 5 5 5 5 6 5 6 6 6
5 4 3 3 2 3 3 3 3 3 3 3 2 2 3 3 3 3 4 4 4 4 4 4 4 4 4 4 4 4 4 4 4 4 4 4 4 4 4 4 5 5 5 5 5 5 5 5 5
4 4 4 4 3 3 3 3 3 2 2 2 2 2 3 3 3 3 3 3 3 3 3 3 4 4 4 4 4 4 3 3 4 3 3 3 3 4 4 4 4 4 4 4 4 4 4 5 5
4 3 3 2 1 2 2 2 2 2 2 1 2 2 2 2 2 3 3 3 3 3 3 3 3 3 3 3 3 3 3 3 3 3 3 3 3 3 3 3 3 3 3 4 3 4 4 4 4
4 3 2 2 3 3 3 2 2 2 2 1 1 1 2 2 2 2 2 2 2 2 2 2 2 2 2 2 2 2 2 2 2 2 2 2 2 2 2 3 3 3 3 3 3 3 3 3 3
3 3 2 1 2 3 3 3 2 2 1 1 0 1 1 2 2 2 2 2 2 2 2 2 2 2 2 2 2 2 2 2 2 2 2 2 2 2 2 2 2 2 2 2 3 3 3 3 3
2 2 2 2 2 1 2 3 2 1 1 0 0 1 1 1 1 1 1 1 2 2 2 2 2 1 1 1 1 1 1 1 1 1 1 1 1 2 2 2 2 2 2 2 2 2 2 2 2
Wind_Speed
8 5 3 4 5 4 2 4 2 1 1 1 1 1 4 3 2 2 2 3 4 2 0 3 5 7 8 8 9 9 10 10 10 11 10 11 12 11 11 12 11 11 11 11 11 11 12 12 11
3 2 5 5 5 1 5 4 3 3 2 1 2 2 3 2 2 2 3 5 4 2 2 2 4 6 7 8 8 9 9 10 10 10 10 11 11 11 11 11 11 11 11 11 11 11 12 12 12
2 4 4 4 4 6 4 2 3 2 1 1 2 3 2 1 2 2 3 4 3 4 4 3 4 5 7 7 7 8 8 9 9 10 10 10 10 10 10 10 10 10 10 10 11 11 11 11 11
3 5 5 4 4 4 3 2 1 1 2 3 2 2 1 3 2 2 3 4 4 5 5 4 4 5 5 6 7 7 7 8 9 9 9 10 10 10 9 9 9 9 10 10 10 11 11 11 11
4 4 3 0 3 3 2 2 1 0 1 2 2 2 0 3 4 3 3 4 4 4 5 5 6 5 5 5 5 6 7 7 7 8 9 9 9 9 9 9 9 9 9 9 10 10 11 11 11
4 4 3 3 4 3 2 2 0 1 0 1 2 2 1 2 4 4 4 4 4 4 5 5 4 5 5 5 6 5 5 6 7 7 8 8 8 8 8 8 8 9 9 9 9 9 10 10 10
4 4 4 4 2 3 2 0 1 0 0 1 0 2 1 2 3 3 3 4 5 6 6 6 5 3 4 3 5 5 5 5 6 6 7 8 8 8 8 7 7 8 8 8 8 9 9 9 9
4 5 3 3 4 4 1 1 1 1 1 1 1 3 2 1 2 3 5 5 5 6 6 6 6 5 3 3 3 4 4 4 5 5 6 7 7 7 7 7 7 7 7 8 8 8 9 8 9
4 4 4 5 5 3 1 1 2 1 2 1 1 0 0 2 3 4 5 5 5 5 5 5 5 5 4 3 3 3 3 3 5 4 5 5 5 5 5 6 6 6 7 7 8 8 8 8 8
4 3 5 3 3 2 1 0 1 1 2 1 1 2 3 4 4 4 3 3 4 4 4 4 4 4 4 3 3 3 3 3 4 4 4 4 4 5 5 5 5 6 6 7 7 8 8 7 7
3 5 3 1 1 1 0 1 1 2 2 4 3 2 2 3 2 2 1 1 1 2 3 4 4 3 3 3 3 3 3 3 3 3 4 4 4 4 4 4 3 4 5 5 5 6 5 6 5
2 2 2 2 0 0 1 1 1 2 4 1 2 2 2 2 1 1 1 1 2 2 3 3 3 3 3 3 2 2 2 2 2 3 3 4 3 2 2 3 3 3 3 4 4 4 4 5 5
1 1 0 0 1 1 1 1 1 2 2 2 3 4 2 1 1 0 0 1 1 2 3 3 2 2 2 3 2 2 2 2 2 3 3 3 2 2 2 2 2 2 3 3 3 3 3 3 3
2 1 2 2 1 1 1 1 0 3 1 3 3 2 1 0 0 1 2 2 2 2 3 2 2 1 2 2 2 2 2 2 2 3 2 3 2 2 2 2 2 2 2 3 3 3 3 2 2
1 1 4 2 1 1 2 3 2 1 2 2 1 1 1 1 1 0 1 1 2 2 3 2 1 2 2 2 2 2 2 3 2 2 2 3 2 2 2 2 2 2 3 3 3 3 3 2 2
2 2 2 3 0 1 2 4 2 1 3 1 0 0 1 2 1 2 2 2 2 2 2 2 2 2 2 2 2 2 3 2 2 2 3 3 3 3 3 1 1 2 3 3 3 3 2 2 1
2 1 3 4 1 1 2 4 3 1 2 2 2 1 1 2 3 3 3 2 2 2 1 2 2 2 2 2 2 2 3 3 2 3 2 2 2 3 3 2 1 2 3 3 3 2 2 2 1
4 3 3 4 2 1 1 5 5 1 2 3 2 1 1 1 3 3 3 3 2 2 2 2 2 2 2 2 2 2 2 2 3 2 2 2 1 2 2 2 2 2 3 2 3 3 2 2 2
3 4 4 4 2 0 3 6 7 3 2 2 2 2 2 2 2 3 3 4 3 4 3 3 3 3 2 2 1 1 1 1 2 2 3 2 1 1 1 1 1 2 2 2 3 3 3 2 2
3 3 3 2 1 1 2 6 6 3 2 3 4 3 3 2 2 3 4 4 3 3 3 3 2 2 2 1 0 0 0 0 1 2 3 3 2 1 1 1 1 1 2 2 3 3 3 2 2
3 5 4 3 2 1 2 5 3 2 0 0 1 2 1 1 1 3 3 4 4 3 3 2 3 2 2 2 1 2 1 1 1 1 2 3 2 1 1 0 1 1 2 3 3 3 3 3 2
4 3 3 3 1 2 0 4 5 3 2 2 2 1 1 1 1 2 2 3 4 3 3 3 3 3 2 2 2 1 0 1 1 1 1 3 2 1 1 1 1 1 1 2 2 3 3 3 3
3 1 2 2 2 1 0 2 6 1 3 5 3 2 2 2 1 1 2 2 3 3 3 3 3 3 3 2 1 1 1 1 1 1 1 1 2 1 1 1 1 1 1 1 2 2 3 3 3
3 4 4 4 3 2 4 5 6 4 5 4 3 2 2 2 2 2 2 2 3 3 3 3 3 3 2 2 1 1 1 1 1 1 1 1 1 1 1 1 0 0 1 2 2 2 3 3 3
4 5 3 3 2 5 2 4 7 5 4 4 4 3 3 2 1 2 3 3 3 4 4 3 3 3 2 2 1 0 1 1 1 1 1 1 1 1 1 1 1 1 1 1 2 2 3 3 4
3 6 6 4 4 4 1 5 6 4 3 2 1 2 2 2 1 2 2 2 3 3 3 3 3 3 2 1 1 1 1 1 1 1 2 2 2 2 1 1 2 2 2 2 2 3 4 3 4
4 3 3 4 1 2 5 5 6 2 2 1 1 2 3 3 2 2 2 2 2 3 3 3 3 3 3 2 2 1 1 1 2 2 2 2 2 2 1 1 2 2 2 3 3 4 4 4 4
2 5 4 4 3 4 5 5 4 4 4 2 2 3 4 4 4 3 3 3 2 2 3 3 2 2 3 2 2 2 2 2 2 2 2 3 2 2 2 2 2 2 3 3 3 4 4 4 4
2 3 3 3 3 3 3 6 3 5 5 4 4 4 4 4 4 4 3 3 2 2 3 3 3 3 3 2 2 2 2 2 1 2 2 2 2 2 2 3 2 3 3 3 4 4 4 4 4
3 4 5 4 4 3 3 6 2 3 3 3 3 3 4 4 3 3 3 3 3 3 3 4 4 3 3 3 2 2 2 1 1 2 3 2 2 2 2 2 2 2 2 3 4 4 4 5 5
Wind_Direction
347 5 56 55 57 55 232 243 220 256 246 298 350 115 140 137 154 181 340 3 0 359 348 148 137 130 128 122 117 116 113 114 115 117 120 120 121 121 119 116 114 115 115 114 112 110 110 109 109
351 18 53 63 98 160 255 236 217 233 228 50 33 55 77 63 23 9 345 338 356 32 63 108 132 136 133 129 124 120 119 115 115 115 114 116 117 118 116 113 111 112 115 113 110 109 110 110 109
26 47 81 85 138 186 222 224 221 292 338 95 66 38 73 24 353 331 327 338 22 45 56 88 105 132 136 131 127 123 125 121 120 121 121 118 118 118 117 114 113 113 114 113 111 110 111 110 108
69 51 60 90 203 221 222 247 235 337 18 41 99 58 33 18 339 316 341 22 51 41 44 54 97 104 124 134 131 126 124 125 123 125 125 126 122 121 122 119 117 116 115 115 111 110 112 111 109
60 80 80 170 236 250 250 268 247 106 2 16 96 118 36 5 11 26 31 42 59 40 40 51 72 87 99 120 133 133 133 132 130 130 130 129 128 122 124 126 124 119 115 116 116 112 111 113 113
61 76 117 214 235 264 273 276 339 34 20 25 87 133 198 19 27 20 31 38 44 40 32 39 66 72 83 114 119 127 134 139 135 136 138 135 133 130 124 123 126 125 120 120 121 121 115 113 113
111 116 172 193 212 255 259 346 118 139 59 298 177 141 278 356 359 13 38 45 47 41 33 29 37 57 68 94 121 117 124 130 138 138 141 138 135 135 134 126 127 127 124 125 127 122 119 114 115
121 118 156 195 196 232 285 23 65 120 214 342 106 149 235 279 356 40 51 47 45 39 30 20 25 36 50 71 111 117 117 126 129 130 137 139 138 138 138 129 124 126 127 128 128 121 116 115 115
93 100 198 206 192 221 329 31 0 27 92 31 29 130 311 98 65 57 45 32 29 27 22 19 21 27 33 50 90 101 98 110 121 112 123 135 132 131 130 126 127 128 130 130 129 123 117 112 111
98 169 216 209 186 185 305 273 257 38 17 333 347 18 60 81 87 75 53 28 15 1 360 14 20 26 35 49 66 73 76 80 99 100 102 110 122 127 128 128 131 132 131 128 126 125 116 105 100
143 191 211 229 184 160 257 305 308 152 251 227 221 215 106 88 83 86 58 20 340 334 349 356 6 30 48 50 66 69 67 71 79 91 101 105 103 115 115 112 113 119 122 112 111 107 100 98 98
151 241 213 240 205 166 211 243 315 213 231 219 175 160 134 124 141 175 219 313 343 348 336 350 9 39 50 61 74 77 74 76 75 78 101 106 104 99 111 104 101 106 113 101 98 93 96 96 99
197 255 288 229 32 192 152 226 240 278 284 59 98 106 108 131 185 266 280 350 352 345 340 348 13 33 49 64 67 72 74 85 85 77 82 103 124 132 125 121 106 111 118 115 106 103 102 99 93
215 244 291 285 262 256 151 273 121 281 72 88 96 107 107 85 137 50 18 355 337 329 327 334 10 26 56 68 69 61 69 68 78 78 74 92 106 135 141 142 139 128 133 135 129 128 131 129 111
68 13 331 298 233 212 106 327 244 227 90 81 81 82 52 359 26 22 299 296 307 313 324 330 356 34 64 64 53 55 59 63 64 66 69 82 95 103 126 145 162 157 146 134 121 110 110 118 110
60 56 307 294 140 174 132 266 275 56 112 140 194 5 348 339 331 315 312 310 320 335 335 335 6 34 38 53 55 49 59 61 57 56 63 63 78 96 99 117 155 140 134 132 138 131 126 129 136
46 245 245 289 294 130 169 245 275 22 144 226 252 267 312 342 341 338 336 332 332 344 7 7 18 30 21 34 44 51 54 54 50 49 51 49 64 85 95 100 93 114 123 133 144 140 145 151 157
219 221 237 249 279 115 210 261 285 272 209 235 246 249 282 309 303 328 343 348 351 359 23 37 35 26 32 39 41 43 42 32 34 28 25 33 50 79 97 100 85 103 132 143 148 147 137 152 158
173 189 240 251 256 173 237 270 285 285 248 239 241 240 254 271 304 348 351 357 5 14 18 28 40 21 37 41 36 23 354 3 21 13 17 5 27 66 99 90 110 118 142 159 162 156 145 133 115
185 196 236 290 345 189 273 282 284 272 240 220 215 220 232 272 348 3 4 7 7 9 10 13 18 17 17 14 35 249 300 0 3 11 9 354 14 32 136 118 154 143 139 139 153 155 155 136 124
219 196 206 235 340 41 353 303 284 309 336 3 217 207 227 235 302 347 360 356 358 359 357 352 355 359 0 7 39 47 50 24 23 5 353 346 5 32 54 114 144 156 157 174 179 168 155 169 175
240 216 196 188 139 278 81 285 279 281 309 306 281 263 279 291 322 348 354 355 349 337 348 4 2 360 0 15 37 57 73 266 278 302 330 345 355 17 64 94 123 163 172 179 191 182 171 173 182
205 83 135 156 153 320 233 215 281 282 269 266 255 245 267 284 283 306 316 318 333 339 350 359 8 1 358 11 23 27 338 290 314 343 2 352 343 349 35 75 90 143 179 203 193 204 186 185 188
132 74 60 57 83 266 225 192 271 244 237 246 243 254 275 286 287 293 315 340 350 356 360 1 13 356 353 8 25 41 329 313 352 347 324 329 347 324 352 39 61 192 195 210 212 219 209 199 192
103 99 36 355 342 250 212 200 251 258 249 228 232 252 280 282 290 315 334 341 345 348 351 352 354 343 346 1 4 336 243 241 231 246 263 292 319 301 261 257 237 236 234 230 215 216 222 208 201
176 149 165 206 230 274 272 233 254 279 295 271 242 270 308 310 306 308 303 303 317 328 334 336 337 334 336 336 316 316 281 241 237 238 239 242 257 264 271 264 257 255 250 242 227 225 226 217 217
154 178 161 136 144 271 262 280 297 296 338 1 350 347 325 315 312 303 297 299 310 313 313 315 325 330 324 311 304 298 280 267 267 265 254 246 252 265 268 262 253 256 249 244 234 230 225 216 223
153 144 114 140 181 252 275 263 250 259 262 282 301 305 306 318 322 318 304 299 309 309 314 323 329 321 312 302 291 290 277 276 282 275 264 261 253 258 254 249 246 251 250 247 242 235 227 220 228
135 145 145 146 174 187 260 267 239 226 226 234 263 286 293 299 303 304 303 303 317 335 341 337 335 336 329 310 298 297 295 292 295 287 276 269 271 264 259 258 259 256 254 246 243 236 225 222 228
175 183 161 174 221 196 218 267 289 229 234 231 263 292 306 301 305 307 310 327 340 340 342 339 337 336 326 316 314 310 312 314 301 293 288 277 272 280 268 268 267 265 265 254 244 237 227 221 227
Height
1485 1486 1488 1490 1495 1506 1505 1499 1496 1495 1493 1493 1492 1492 1493 1495 1497 1502 1498 1496 1497 1498 1499 1501 1503 1504 1505 1506 1507 1508 1509 1509 1511 1512 1513 1514 1515 1516 1517 1518 1519 1520 1521 1522 1523 1524 1524 1525 1526
1485 1487 1489 1490 1500 1510 1505 1496 1495 1493 1492 1492 1492 1492 1493 1494 1495 1496 1495 1496 1497 1498 1499 1501 1502 1504 1505 1506 1507 1508 1509 1510 1511 1512 1513 1514 1515 1516 1517 1518 1519 1520 1521 1522 1523 1524 1525 1525 1526
1485 1487 1490 1493 1502 1505 1498 1493 1493 1492 1491 1491 1492 1493 1494 1495 1495 1495 1496 1496 1497 1498 1499 1501 1502 1504 1505 1506 1507 1508 1509 1510 1511 1512 1513 1514 1515 1516 1517 1518 1520 1520 1521 1522 1523 1524 1525 1526 1527
1486 1488 1490 1498 1500 1497 1494 1491 1491 1491 1491 1491 1492 1493 1494 1496 1496 1496 1496 1496 1497 1498 1499 1500 1502 1503 1504 1505 1506 1508 1509 1510 1511 1512 1513 1514 1515 1516 1517 1518 1519 1520 1521 1522 1523 1524 1525 1526 1526
1486 1487 1495 1501 1498 1495 1492 1491 1491 1491 1491 1492 1492 1493 1494 1496 1495 1495 1496 1496 1497 1498 1499 1500 1501 1502 1503 1504 1506 1507 1508 1509 1511 1512 1513 1514 1515 1516 1517 1518 1519 1520 1521 1522 1523 1524 1525 1526 1526
1486 1488 1500 1502 1497 1493 1491 1490 1491 1491 1492 1492 1493 1493 1494 1495 1495 1495 1496 1496 1497 1497 1498 1499 1500 1501 1502 1503 1504 1506 1507 1508 1509 1511 1512 1513 1514 1515 1516 1517 1518 1519 1520 1522 1523 1524 1524 1525 1526
1487 1492 1497 1498 1497 1494 1491 1490 1491 1491 1492 1493 1493 1494 1494 1494 1495 1495 1496 1496 1496 1497 1498 1498 1499 1500 1501 1502 1503 1505 1506 1507 1508 1509 1511 1512 1513 1514 1515 1516 1517 1518 1519 1521 1522 1523 1524 1525 1526
1485 1491 1495 1497 1495 1493 1490 1490 1491 1491 1492 1493 1493 1494 1493 1494 1494 1494 1495 1496 1496 1496 1497 1497 1498 1499 1500 1501 1502 1503 1505 1506 1507 1508 1509 1511 1512 1513 1514 1516 1517 1518 1519 1520 1521 1522 1523 1524 1525
1486 1494 1497 1494 1493 1491 1489 1490 1491 1491 1491 1492 1492 1493 1493 1493 1493 1494 1494 1494 1495 1495 1496 1496 1496 1497 1498 1499 1500 1502 1503 1504 1505 1506 1508 1509 1511 1512 1513 1514 1515 1517 1518 1519 1520 1521 1522 1523 1524
1486 1494 1491 1489 1488 1489 1489 1489 1490 1491 1491 1492 1492 1492 1492 1492 1492 1492 1492 1492 1493 1493 1494 1494 1495 1495 1496 1497 1498 1500 1501 1503 1504 1505 1506 1507 1509 1510 1511 1513 1514 1515 1516 1517 1518 1519 1521 1522 1523
1486 1489 1487 1487 1487 1487 1488 1489 1489 1490 1491 1491 1490 1490 1490 1491 1491 1491 1491 1492 1492 1492 1492 1493 1493 1493 1494 1495 1496 1498 1499 1500 1502 1503 1504 1505 1507 1508 1509 1511 1512 1513 1515 1516 1517 1518 1519 1520 1522
1487 1487 1486 1486 1486 1487 1488 1488 1489 1489 1489 1489 1490 1490 1489 1490 1490 1490 1490 1490 1491 1491 1491 1491 1491 1491 1492 1493 1494 1495 1497 1498 1500 1501 1502 1504 1505 1506 1507 1508 1510 1511 1512 1513 1515 1516 1517 1519 1520
1486 1486 1486 1486 1486 1486 1487 1487 1488 1488 1488 1488 1488 1489 1488 1489 1489 1489 1490 1490 1490 1490 1490 1490 1490 1490 1491 1491 1492 1493 1494 1496 1497 1499 1500 1501 1502 1504 1505 1506 1508 1509 1510 1511 1513 1514 1515 1517 1518
1485 1486 1486 1485 1485 1485 1486 1487 1488 1486 1487 1487 1487 1487 1487 1488 1488 1488 1488 1488 1488 1488 1488 1489 1489 1489 1490 1490 1491 1491 1492 1494 1495 1496 1497 1499 1500 1501 1503 1504 1505 1507 1508 1509 1510 1512 1513 1514 1515
1485 1486 1486 1485 1484 1485 1486 1488 1487 1486 1486 1486 1486 1486 1486 1487 1487 1487 1487 1486 1486 1486 1487 1487 1487 1487 1487 1488 1489 1489 1490 1491 1492 1493 1495 1496 1498 1499 1500 1501 1502 1504 1506 1507 1508 1509 1510 1512 1513
1485 1489 1490 1486 1484 1485 1489 1490 1486 1485 1485 1485 1485 1485 1485 1485 1485 1485 1485 1485 1485 1484 1484 1485 1485 1485 1485 1486 1486 1487 1488 1489 1490 1491 1492 1494 1495 1496 1497 1499 1500 1501 1503 1504 1505 1506 1508 1509 1510
1490 1493 1491 1488 1485 1485 1487 1488 1485 1485 1484 1484 1484 1483 1483 1483 1483 1483 1483 1483 1483 1482 1482 1482 1483 1483 1483 1484 1484 1485 1486 1487 1488 1488 1489 1491 1492 1493 1494 1496 1497 1499 1500 1501 1502 1503 1505 1506 1507
1491 1492 1491 1489 1486 1486 1488 1487 1484 1484 1483 1482 1482 1482 1481 1481 1481 1481 1481 1481 1481 1480 1480 1480 1480 1481 1481 1482 1482 1483 1484 1484 1485 1485 1486 1488 1489 1490 1492 1493 1494 1495 1497 1498 1499 1501 1502 1504 1505
1486 1489 1491 1489 1486 1487 1488 1486 1483 1482 1481 1480 1480 1480 1479 1479 1480 1480 1480 1479 1479 1478 1478 1478 1478 1478 1478 1479 1479 1480 1480 1481 1482 1483 1483 1485 1485 1487 1488 1489 1491 1492 1493 1495 1496 1497 1499 1500 1502
1485 1488 1490 1489 1486 1487 1488 1486 1481 1480 1479 1478 1478 1478 1478 1477 1478 1477 1478 1477 1477 1476 1476 1476 1476 1476 1477 1477 1477 1477 1478 1478 1479 1480 1481 1482 1482 1483 1484 1486 1487 1488 1490 1491 1493 1494 1495 1497 1498
1484 1486 1487 1489 1488 1488 1489 1485 1481 1478 1477 1477 1476 1476 1476 1476 1476 1476 1476 1475 1475 1474 1474 1474 1474 1474 1474 1474 1475 1475 1475 1476 1476 1477 1477 1478 1478 1480 1481 1482 1484 1485 1486 1488 1489 1490 1491 1493 1495
1484 1482 1484 1486 1490 1493 1491 1492 1481 1479 1477 1476 1475 1475 1475 1475 1475 1475 1474 1474 1473 1473 1473 1472 1472 1472 1472 1472 1472 1471 1471 1472 1472 1473 1474 1475 1476 1477 1478 1479 1480 1481 1483 1484 1486 1487 1488 1490 1491
1482 1482 1484 1486 1490 1495 1494 1496 1483 1480 1478 1475 1474 1473 1473 1473 1473 1473 1473 1472 1472 1472 1471 1470 1470 1470 1470 1469 1469 1469 1469 1469 1470 1470 1471 1472 1472 1473 1474 1476 1477 1478 1479 1481 1482 1483 1485 1486 1487
1481 1484 1487 1492 1495 1497 1492 1495 1484 1480 1474 1472 1472 1472 1472 1472 1472 1471 1471 1471 1471 1470 1469 1469 1468 1468 1467 1467 1467 1466 1466 1467 1467 1467 1468 1468 1469 1470 1471 1472 1473 1474 1476 1477 1478 1480 1481 1482 1484
1481 1488 1497 1498 1503 1497 1490 1490 1482 1473 1471 1470 1470 1469 1470 1470 1469 1469 1469 1468 1468 1467 1467 1466 1465 1465 1465 1464 1464 1464 1464 1464 1464 1464 1465 1465 1466 1467 1467 1468 1470 1471 1472 1473 1474 1476 1477 1478 1479
1482 1484 1494 1496 1499 1496 1491 1488 1478 1471 1470 1469 1469 1468 1468 1467 1467 1467 1467 1466 1465 1465 1465 1464 1463 1463 1462 1462 1462 1462 1462 1462 1462 1462 1462 1462 1462 1463 1464 1465 1466 1467 1468 1470 1471 1471 1473 1474 1476
1481 1485 1486 1495 1501 1500 1492 1486 1476 1470 1469 1468 1468 1467 1467 1466 1465 1465 1465 1464 1464 1463 1463 1462 1461 1461 1460 1460 1460 1459 1459 1459 1459 1459 1459 1459 1460 1460 1461 1462 1463 1464 1465 1466 1466 1467 1469 1470 1471
1479 1483 1490 1493 1493 1491 1487 1486 1478 1471 1469 1468 1468 1467 1465 1465 1464 1463 1463 1462 1462 1461 1461 1460 1459 1458 1458 1457 1457 1457 1456 1456 1456 1456 1456 1456 1456 1457 1458 1459 1459 1460 1461 1462 1462 1463 1464 1465 1467
1482 1484 1486 1491 1492 1490 1488 1479 1469 1468 1467 1467 1467 1466 1465 1463 1463 1462 1461 1461 1460 1459 1459 1458 1457 1456 1455 1455 1454 1454 1453 1453 1453 1453 1453 1453 1453 1454 1454 1455 1455 1456 1457 1458 1458 1459 1459 1460 1461
1480 1480 1484 1487 1491 1493 1490 1479 1467 1466 1466 1466 1465 1464 1463 1463 1462 1460 1460 1459 1458 1457 1456 1456 1455 1454 1453 1452 1452 1451 1451 1451 1450 1450 1450 1450 1450 1451 1451 1451 1452 1452 1453 1453 1454 1454 1455 1455 1456